Stations météo

réclame
Mon MeteoGroup
Baltasound, Grande-Bretagne (3002): Température de l'air & dewpoint: 08.10.2019 19:00:00 - 14.10.2019 19:00:00 (BST)Baltasound, Grande-Bretagne (3002): Température de l'air -20cm: 08.10.2019 19:00:00 - 14.10.2019 19:00:00 (BST)Baltasound, Grande-Bretagne (3002): Vitesse du vent & gusts: 08.10.2019 19:00:00 - 14.10.2019 19:00:00 (BST)Baltasound, Grande-Bretagne (3002): Direction du vent: 08.10.2019 19:00:00 - 14.10.2019 19:00:00 (BST)Baltasound, Grande-Bretagne (3002): reduced air pressure: 08.10.2019 19:00:00 - 14.10.2019 19:00:00 (BST)Baltasound, Grande-Bretagne (3002): visibility: 08.10.2019 19:00:00 - 14.10.2019 19:00:00 (BST)Baltasound, Grande-Bretagne (3002): Quantités de précipitations: 08.10.2019 19:00:00 - 14.10.2019 19:00:00 (BST)
Date & Time tt [°C] td [°C] tt -20cm [°C] ff [km/h] ff [knt] fx [km/h] fx [knt] dd ppp [hPa] vv [km] rr [mm]
14.10.2019 19:00:00 9,2 7,6 - 15 8 - - SSE 1009,6 50 0,0
14.10.2019 18:00:00 9,1 7,5 - 13 7 - - S 1009,4 50 0,0
14.10.2019 17:00:00 10,2 8,1 - 13 7 - - SSE 1009,3 40 0,0
14.10.2019 16:00:00 10,1 6,4 - 4 2 - - ESE 1009,2 50 0,0
14.10.2019 15:00:00 11,0 5,7 - 9 5 - - SE 1009,2 35 0,0
14.10.2019 14:00:00 11,4 4,5 - 8 4 - - SE 1008,9 50 0,0
14.10.2019 13:00:00 10,9 5,3 - 5 3 - - ESE 1008,9 45 0,0
14.10.2019 12:00:00 10,0 5,2 - 2 1 - - E 1008,7 45 0,0
14.10.2019 11:00:00 10,8 6,2 - 2 1 - - E 1008,5 35 0,0
14.10.2019 10:00:00 7,1 6,6 9,0 5 3 - - SW 1008,0 45 0,0
14.10.2019 09:00:00 3,9 3,4 - 9 5 - - WSW 1007,6 50 0,0
14.10.2019 08:00:00 3,4 2,8 - 8 4 - - WSW 1007,0 45 0,0
14.10.2019 07:00:00 3,4 2,4 - 9 5 - - W 1006,4 50 0,0
14.10.2019 06:00:00 4,3 3,6 - 8 4 - - WSW 1005,8 50 0,0
14.10.2019 05:00:00 4,3 3,5 - 5 3 - - WSW 1005,5 50 0,0
14.10.2019 04:00:00 5,4 4,6 - 8 4 - - W 1005,3 50 0,2
14.10.2019 03:00:00 4,4 3,8 - 5 3 - - WSW 1004,9 50 0,0
14.10.2019 02:00:00 4,1 3,6 - 5 3 - - W 1004,7 50 0,0
14.10.2019 01:00:00 3,4 2,8 - 4 2 - - W 1004,4 45 0,0
14.10.2019 00:00:00 3,2 2,7 - 5 3 - - W 1004,2 45 0,0
13.10.2019 23:00:00 3,4 2,8 - 5 3 - - WSW 1004,1 50 0,0
13.10.2019 22:00:00 3,4 2,6 - 5 3 - - W 1004,0 50 0,0
13.10.2019 21:00:00 3,8 3,1 - 5 3 - - W 1004,1 50 0,0
13.10.2019 20:00:00 3,2 2,3 - 5 3 - - WSW 1004,2 50 0,0
13.10.2019 19:00:00 4,4 3,0 - 2 1 - - WNW 1003,9 50 0,0
13.10.2019 18:00:00 6,8 4,4 - 4 2 - - N 1003,9 50 0,0
13.10.2019 17:00:00 9,3 5,8 - 9 5 - - ENE 1004,0 35 0,0
13.10.2019 16:00:00 10,0 5,8 - 9 5 - - ENE 1004,1 30 0,0
13.10.2019 15:00:00 10,4 5,1 - 9 5 - - E 1004,4 35 0,0
13.10.2019 14:00:00 10,3 6,0 - 9 5 - - ENE 1004,5 30 0,0
13.10.2019 13:00:00 10,2 4,5 - 8 4 - - E 1004,5 50 0,0
13.10.2019 12:00:00 9,4 5,2 - 5 3 - - ENE 1004,7 50 0,0
13.10.2019 11:00:00 9,7 6,9 - 2 1 - - N 1004,6 35 0,0
13.10.2019 10:00:00 5,1 4,6 9,7 2 1 - - W 1004,1 50 0,0
13.10.2019 09:00:00 3,7 3,1 - 5 3 - - WSW 1003,7 50 0,0
13.10.2019 08:00:00 2,8 2,2 - 5 3 - - WSW 1003,3 35 0,0
13.10.2019 07:00:00 2,9 1,8 - 4 2 - - WSW 1003,0 50 0,0
13.10.2019 06:00:00 5,0 4,2 - 2 1 - - WSW 1002,7 50 0,0
13.10.2019 05:00:00 3,1 2,6 - 5 3 - - WSW 1002,6 50 0,0
13.10.2019 04:00:00 3,1 2,4 - 8 4 - - WSW 1002,4 50 0,0
13.10.2019 03:00:00 3,4 2,4 - 5 3 - - WSW 1002,1 35 0,0
13.10.2019 02:00:00 4,6 3,4 - 8 4 - - W 1001,9 50 0,0
13.10.2019 01:00:00 4,5 3,3 - 8 4 - - WNW 1001,6 45 0,0
13.10.2019 00:00:00 4,1 3,1 - 4 2 - - SW 1001,3 50 0,0
12.10.2019 23:00:00 4,8 3,8 - 4 2 - - W 1001,0 45 0,0
12.10.2019 22:00:00 6,7 5,1 - 2 1 - - W 1000,6 50 0,0
12.10.2019 21:00:00 6,7 5,4 - 4 2 - - W 1000,0 50 0,0
12.10.2019 20:00:00 7,5 6,0 - 13 7 - - N 999,3 50 0,0
12.10.2019 19:00:00 7,8 5,9 - 5 3 - - N 998,8 40 0,0
12.10.2019 18:00:00 8,9 6,8 - 11 6 - - N 998,2 50 0,0
12.10.2019 17:00:00 9,8 6,9 - 15 8 - - NNE 997,7 30 0,0
12.10.2019 16:00:00 9,3 6,7 - 13 7 - - NNE 997,5 45 0,0
12.10.2019 15:00:00 10,3 6,1 - 9 5 - - N 996,9 50 0,0
12.10.2019 14:00:00 9,9 7,1 - 13 7 - - NW 996,5 35 0,0
12.10.2019 13:00:00 10,8 7,6 - 13 7 - - WNW 996,1 50 0,0
12.10.2019 12:00:00 10,3 6,8 - 13 7 - - WNW 995,5 23 0,0
12.10.2019 11:00:00 9,6 5,8 - 13 7 - - NW 995,0 50 0,0
12.10.2019 10:00:00 9,1 7,1 9,9 8 4 - - NW 994,5 35 0,0
12.10.2019 09:00:00 7,3 6,2 - 9 5 - - WNW 993,9 40 0,0
12.10.2019 08:00:00 6,2 5,0 - 8 4 - - WNW 993,2 35 0,0
12.10.2019 07:00:00 6,3 5,4 - 8 4 - - WNW 992,6 35 0,0
12.10.2019 06:00:00 6,5 5,4 - 5 3 - - N 992,0 40 0,0
12.10.2019 05:00:00 7,8 6,8 - 9 5 - - N 991,5 40 0,0
12.10.2019 04:00:00 8,0 7,0 - 8 4 - - WNW 991,3 50 0,6
12.10.2019 03:00:00 8,4 7,0 - 15 8 - - N 991,0 45 0,0
12.10.2019 02:00:00 8,8 7,1 - 13 7 - - NNE 990,5 30 0,0
12.10.2019 01:00:00 9,1 7,7 - 16 9 - - NNE 989,9 26 0,0
12.10.2019 00:00:00 9,0 7,9 - 15 8 - - NE 989,2 35 0,2
11.10.2019 23:00:00 8,6 7,5 - 18 10 - - NE 988,7 4,9 0,2
11.10.2019 22:00:00 9,2 7,8 - 21 11 - - NE 987,9 30 0,2
11.10.2019 21:00:00 9,3 8,1 - 18 10 - - NE 987,3 18 0,2
11.10.2019 20:00:00 9,4 8,3 - 22 12 - - NNE 987,0 18 0,0
11.10.2019 19:00:00 9,0 8,5 - 24 13 - - NNE 986,5 6 1,0
11.10.2019 18:00:00 9,4 9,1 - 22 12 - - NNE 986,1 5 1,2
11.10.2019 17:00:00 9,4 9,2 - 18 10 - - N 985,8 5 0,6
11.10.2019 16:00:00 9,4 9,1 - 21 11 - - NNE 985,8 4,1 1,0
11.10.2019 15:00:00 9,6 8,9 - 22 12 - - NNE 986,0 4,3 0,0
11.10.2019 14:00:00 10,4 8,9 - 16 9 - - NE 986,1 15 0,0
11.10.2019 13:00:00 10,8 9,1 - 15 8 - - NE 986,3 35 0,0
11.10.2019 12:00:00 10,6 8,7 - 13 7 - - ENE 986,5 30 0,0
11.10.2019 11:00:00 10,1 8,3 - 13 7 - - E 986,7 35 0,0
11.10.2019 10:00:00 9,5 7,8 9,9 18 10 - - ESE 986,9 13 0,2
11.10.2019 09:00:00 9,7 8,7 - 13 7 - - ESE 986,9 30 0,0
11.10.2019 08:00:00 9,4 8,5 - 13 7 - - SSE 986,9 35 0,2
11.10.2019 07:00:00 9,7 8,9 - 15 8 - - E 987,1 19 0,0
11.10.2019 06:00:00 9,6 8,0 - 13 7 - - E 987,7 18 0,0
11.10.2019 05:00:00 7,2 6,2 - 5 3 - - SSW 988,5 30 0,0
11.10.2019 04:00:00 6,6 5,3 - 2 1 - - NW 989,2 28 0,0
11.10.2019 03:00:00 7,5 6,2 - 8 4 - - SSE 990,1 30 0,0
11.10.2019 02:00:00 7,5 5,3 - 13 7 - - S 990,6 30 0,0
11.10.2019 01:00:00 6,5 4,0 - 15 8 - - SSW 990,7 29 0,0
11.10.2019 00:00:00 4,8 2,4 - 11 6 - - SSW 991,0 35 0,0
10.10.2019 23:00:00 7,0 3,4 - 21 11 - - SSW 991,1 35 0,0
10.10.2019 22:00:00 8,1 4,5 - 18 10 - - SW 991,0 23 0,0
10.10.2019 21:00:00 8,7 4,5 - 24 13 - - SW 991,2 24 0,0
10.10.2019 20:00:00 8,8 4,0 - 28 15 46 25 WSW 991,1 24 0,0
10.10.2019 19:00:00 9,0 3,9 - 34 18 48 26 WSW 991,0 29 0,0
10.10.2019 18:00:00 9,0 4,7 - 35 19 55 30 WSW 990,6 19 0,0
10.10.2019 17:00:00 9,0 5,1 - 41 22 61 33 WSW 990,1 22 0,0
10.10.2019 16:00:00 9,5 5,5 - 41 22 63 34 WSW 990,0 24 0,0
10.10.2019 15:00:00 9,6 6,3 - 42 23 63 34 WSW 989,5 20 0,0
10.10.2019 14:00:00 9,6 8,1 - 46 25 59 32 WSW 988,8 14 0,0
10.10.2019 13:00:00 9,5 8,4 - 46 25 65 35 WSW 988,2 10 0,2
10.10.2019 12:00:00 9,9 9,1 - 35 19 54 29 WSW 987,3 5 0,0
10.10.2019 11:00:00 10,0 9,1 - 35 19 52 28 WSW 986,3 13 0,4
10.10.2019 10:00:00 10,3 9,7 10,0 31 17 50 27 W 985,3 2,0 0,6
10.10.2019 09:00:00 10,5 10,0 - 31 17 - - SW 984,4 23 0,4
10.10.2019 08:00:00 10,3 9,9 - 24 13 - - SSW 983,9 7 0,0
10.10.2019 07:00:00 10,3 9,8 - 22 12 - - SSW 983,4 25 0,2
10.10.2019 06:00:00 10,2 9,6 - 21 11 - - S 983,2 2,5 0,0
10.10.2019 05:00:00 10,4 10,0 - 21 11 - - SSW 982,9 20 0,6
10.10.2019 04:00:00 10,7 10,3 - 24 13 - - S 982,6 7 0,4
10.10.2019 03:00:00 10,8 10,2 - 28 15 - - SSE 982,6 18 0,6
10.10.2019 02:00:00 10,7 10,1 - 29 16 - - SSE 982,7 9 1,4
10.10.2019 01:00:00 10,8 10,0 - 29 16 - - SSE 982,9 7 0,2
10.10.2019 00:00:00 10,9 9,7 - 35 19 48 26 S 983,3 17 0,0
09.10.2019 23:00:00 11,0 10,0 - 26 14 - - SSE 983,6 10 0,0
09.10.2019 22:00:00 11,1 9,7 - 26 14 - - SSE 983,9 11 0,0
09.10.2019 21:00:00 11,0 9,6 - 28 15 - - SSE 984,2 11 0,0
09.10.2019 20:00:00 10,9 9,6 - 28 15 - - SSE 984,3 12 0,0
09.10.2019 19:00:00 10,9 9,7 - 26 14 - - SSE 984,4 12 0,0
09.10.2019 18:00:00 10,8 9,8 - 22 12 - - S 984,4 10 0,0
09.10.2019 17:00:00 11,1 10,1 - 28 15 - - S 984,3 10 0,0
09.10.2019 16:00:00 11,2 10,1 - 28 15 - - S 984,1 10 0,0
09.10.2019 15:00:00 11,4 9,8 - 29 16 - - S 984,0 17 0,0
09.10.2019 14:00:00 11,1 10,2 - 29 16 - - S 983,9 13 0,2
09.10.2019 13:00:00 10,8 10,2 - 29 16 - - S 983,8 8 2,0
09.10.2019 12:00:00 10,8 9,7 - 28 15 - - S 983,5 8 0,2
09.10.2019 11:00:00 10,9 9,9 - 29 16 46 25 S 983,7 9 0,2
09.10.2019 10:00:00 11,3 9,7 9,7 29 16 - - S 983,5 13 0,0
09.10.2019 09:00:00 10,7 9,6 - 28 15 - - S 983,5 12 0,0
09.10.2019 08:00:00 10,3 9,7 - 24 13 - - S 983,6 5 0,0
09.10.2019 07:00:00 10,1 9,6 - 24 13 - - S 983,5 12 0,2
09.10.2019 06:00:00 9,8 9,0 - 28 15 - - S 983,5 6 0,2
09.10.2019 05:00:00 9,4 8,6 - 16 9 - - S 983,5 13 0,0
09.10.2019 04:00:00 9,4 8,4 - 16 9 - - S 983,6 13 0,0
09.10.2019 03:00:00 10,0 9,3 - 18 10 - - S 983,9 13 0,0
09.10.2019 02:00:00 9,3 8,7 - 18 10 - - S 983,9 11 0,0
09.10.2019 01:00:00 9,8 8,9 - 18 10 - - S 983,9 24 0,0
09.10.2019 00:00:00 10,2 9,6 - 18 10 - - S 983,9 17 0,0
08.10.2019 23:00:00 10,3 9,6 - 22 12 - - S 983,8 14 0,0
08.10.2019 22:00:00 10,6 10,0 - 24 13 - - S 983,9 12 1,0
08.10.2019 21:00:00 10,4 10,0 - 24 13 - - SSE 984,0 4,5 2,2
08.10.2019 20:00:00 10,0 9,3 - 24 13 - - SSE 984,5 6 2,6
08.10.2019 19:00:00 10,2 8,8 - 21 11 - - SSE 984,9 10 0,0

tt = Température de l'air
td = dewpoint
tt -20cm = Température de l'air -20cm
ff = Vitesse du vent
fx = gusts
dd = Direction du vent
ppp = reduced air pressure
vv = visibility
rr = Quantités de précipitations

stations d'obs. à proximité